Regional Weather Roundup
Issued by NWS Little Rock, AR

Home | Current Version | Previous Version | Text Only | Print | Product List | Glossary On
Versions: 1 2 3 4 5 6 7 8 9 10 11 12 13 14 15 16 17 18 19 20 21 22 23 24 25 26 27 28 29 30 31 32 33 34 35 36 37 38 39 40 41 42 43 44 45 46 47 48 49 50
000
ASUS44 KLZK 250305
RWRLZK

WEATHER ROUNDUP FOR ARKANSAS
NATIONAL WEATHER SERVICE LITTLE ROCK AR
1000 PM CDT SUN MAY 24 2015

NOTE: "FAIR" INDICATES FEW OR NO CLOUDS BELOW 12,000 FEET WITH NO
SIGNIFICANT WEATHER AND/OR OBSTRUCTIONS TO VISIBILITY.

ARZ001-003-010-029-250400-
NORTHWEST ARKANSAS

CITY           SKY/WX    TMP DP  RH WIND       PRES   REMARKS
FAYETTEVILLE   CLOUDY    62  61  96 SW6       29.91R
FORT SMITH     MOCLDY    63  61  93 CALM      29.91R
HARRISON       MOCLDY    63  61  93 SW5       29.92R
BENTONVILLE    CLOUDY    64  61  88 S7        29.90R
ROGERS         CLOUDY    63  61  93 S7        29.91R
SILOAM SPGS    CLOUDY    63  55  77 S8        29.90F
HIGHFILL       CLOUDY    63  63 100 S7        29.89S
$$

ARZ004-005-016-250400-
NORTH CENTRAL ARKANSAS

CITY           SKY/WX    TMP DP  RH WIND       PRES   REMARKS
BATESVILLE     CLOUDY    68  66  94 SE7       29.94R
FLIPPIN        CLOUDY    70  66  88 S5        29.89R
MTN HOME       CLOUDY    67  66  97 VRB3      29.90R
$$

ARZ040-041-250400-
WEST CENTRAL ARKANSAS

CITY           SKY/WX    TMP DP  RH WIND       PRES   REMARKS
MENA           CLOUDY    70  68  94 CALM      29.94R
MOUNT IDA      CLOUDY    72  67  84 CALM      29.92R
$$

ARZ009-017-025-026-028-250400-
NORTHEAST ARKANSAS

CITY           SKY/WX    TMP DP  RH WIND       PRES   REMARKS
CORNING          N/A     70  70 100 S13G22    29.96S
JONESBORO      CLOUDY    69  67  93 SE13      29.97S
NEWPORT        CLOUDY    71  68  90 S15       29.96F
WALNUT RIDGE   CLOUDY    70  66  88 S13       29.95
$$

ARZ022-023-033-042-044-250400-
CENTRAL ARKANSAS

CITY           SKY/WX    TMP DP  RH WIND       PRES   REMARKS
LITTLE ROCK    CLOUDY    72  67  84 S12       29.96R
N LITTLE ROCK  MOCLDY    71  70  97 S10G17    29.96R
JACKSONVILLE   CLOUDY    71  69  93 S8        29.95R
SEARCY         CLOUDY    71  68  90 S6        29.97R
HOT SPRINGS    CLOUDY    72  69  90 S5        29.95R
RUSSELLVILLE   CLOUDY    70  67  90 S3        29.92R
CLINTON        TSTM      68  68 100 S8        29.95R VSB 1
$$

ARZ036-250400-
EAST ARKANSAS

CITY           SKY/WX    TMP DP  RH WIND       PRES   REMARKS
WEST MEMPHIS   CLOUDY    70  69  97 S17       30.00R
$$

ARZ050-053-066-070-073-250400-
SOUTHWEST ARKANSAS

CITY           SKY/WX    TMP DP  RH WIND       PRES   REMARKS
ARKADELPHIA    LGT RAIN  72  72 100 VRB5      29.96R
CAMDEN         CLOUDY    72  68  88 CALM      29.96R
TEXARKANA      CLOUDY    72  68  87 S7        29.93R
EL DORADO      CLOUDY    71  68  90 SE5       29.97R
DE QUEEN       CLOUDY    72  69  90 S6        29.90R
$$

ARZ056-057-069-250400-
SOUTHEAST ARKANSAS

CITY           SKY/WX    TMP DP  RH WIND       PRES   REMARKS
PINE BLUFF     CLOUDY    72  70  93 S7        29.97R
STUTTGART      CLOUDY    72  66  83 MISG      29.97R
MONTICELLO     CLOUDY    72  71  97 SE5       29.98R

$$




USA.gov is the U.S. government's official web portal to all federal, state and local government web resources and services.